Location: Bremen
(53.0793°N, 8.8017°E)
Time: 06:51:02
(UTC+01:00)

Tiros 1 - Pass Details

Date: 06 December 2021
Orbit: 629 x 664 km, 48.4° (Epoch: 25 January)

Event Time Altitude Azimuth Distance (km) Brightness Sun altitude
Rises 17:17:20 0° 194° (SSW) 2,908 11.1 -9.6°
Reaches altitude 10° 17:20:56 10° 165° (SSE) 2,010 9.8 -10.1°
Maximum altitude 17:22:51 12° 140° (SE) 1,856 9.3 -10.3°
Drops below altitude 10° 17:24:46 10° 115° (ESE) 2,022 9.3 -10.6°
Enters shadow 17:25:44 - 105° (ESE) 2,208 9.4 -10.7°
